Weather History for Grand Canyon, AZ

Change the Weather History Date:

Sunday, November 6, 2011

  Actual Average Record
Temperature  
Mean Temperature 26 °F -  
Max Temperature 34 °F 51 °F 71 °F (2012)
Min Temperature 19 °F 22 °F 7 °F (2008)
Degree Days  
Heating Degree Days 38    
Moisture  
Dew Point 25 °F    
Average Humidity 84    
Maximum Humidity 93    
Minimum Humidity 70    
Precipitation  
Precipitation 0.04 in - - ()
Sea Level Pressure  
Sea Level Pressure 29.96 in    
Wind  
Wind Speed 4 mph (SSW)    
Max Wind Speed 14 mph    
Max Gust Speed -    
Visibility 8 miles    
Events Snow    
Averages and records for this station are not official NWS values.
T = Trace of Precipitation, MM = Missing Value Source: NWS Daily Summary

Daily Weather History Graph

Daily Weather History Graph

Search for Another Location

Airport:

Trip Planner

Search our weather history database for the weather conditions in past years. The results will help you decide how hot, cold, wet, or windy it might be!

Date:

Astronomy

Nov. 06, 2011 Rise Set
Actual Time 6:55 AM MST 5:28 PM MST
Civil Twilight 6:29 AM MST 5:54 PM MST
Nautical Twilight 5:58 AM MST 6:25 PM MST
Astronomical Twilight 5:28 AM MST 6:55 PM MST
Moon 3:08 PM MST (11/6) 3:11 AM MST (11/6)
Length of Visible Light 11h 25m
Length of Day
10h 32m
Waxing Gibbous, 86% of the Moon is Illuminated
Nov 6
Waxing Gibbous
Nov 10
Full
Nov 18
Last Quarter
Nov 24
New
Dec 2
First Quarter

Hourly Weather History & Observations

Time (MST) Temp. Windchill Dew Point Humidity Pressure Visibility Wind Dir Wind Speed Gust Speed Precip Events Conditions
12:25 AM 28.4 °F - 24.8 °F 86% 29.96 in 10.0 mi Calm Calm - N/A   Overcast
12:54 AM 26.1 °F - 24.1 °F 92% 29.96 in 10.0 mi Calm Calm - N/A   Mostly Cloudy
1:23 AM 26.6 °F - 24.8 °F 93% 29.96 in 10.0 mi Calm Calm - N/A   Mostly Cloudy
1:51 AM 26.6 °F - 23.0 °F 86% 29.96 in 10.0 mi Calm Calm - N/A   Scattered Clouds
1:54 AM 25.0 °F 20.7 °F 23.0 °F 92% 29.96 in 10.0 mi NW 3.5 mph - N/A   Scattered Clouds
2:54 AM 21.9 °F - 19.9 °F 92% 29.97 in 10.0 mi Calm Calm - N/A   Clear
3:54 AM 19.9 °F - 17.1 °F 89% 29.99 in 10.0 mi Calm Calm - N/A   Clear
4:23 AM 21.2 °F - 17.6 °F 86% 29.95 in 10.0 mi Calm Calm - N/A   Mostly Cloudy
4:33 AM 21.2 °F - 17.6 °F 86% 29.95 in 10.0 mi Calm Calm - N/A   Scattered Clouds
4:54 AM 19.4 °F - 17.6 °F 93% 29.95 in 10.0 mi Calm Calm - N/A   Clear
5:13 AM 21.2 °F - 19.4 °F 93% 29.95 in 10.0 mi Calm Calm - N/A   Mostly Cloudy
5:45 AM 21.2 °F - 17.6 °F 86% 29.96 in 10.0 mi Calm Calm - N/A   Overcast
5:54 AM 21.0 °F - 18.0 °F 88% 30.00 in 10.0 mi Calm Calm - N/A   Mostly Cloudy
6:13 AM 21.2 °F - 17.6 °F 86% 29.97 in 10.0 mi Calm Calm - N/A   Overcast
6:43 AM 21.2 °F - 19.4 °F 93% 29.97 in 10.0 mi Calm Calm - N/A   Overcast
6:54 AM 23.0 °F - 19.9 °F 88% 30.00 in 2.0 mi Calm Calm - N/A   Overcast
7:38 AM 28.4 °F 23.3 °F 26.6 °F 93% 29.98 in 8.0 mi South 4.6 mph - N/A   Overcast
7:54 AM 28.0 °F 21.7 °F 26.1 °F 92% 29.99 in 9.0 mi South 5.8 mph - N/A   Overcast
8:03 AM 28.4 °F 23.3 °F 26.6 °F 93% 29.99 in 10.0 mi SSW 4.6 mph - N/A   Overcast
8:54 AM 30.0 °F 23.2 °F 27.0 °F 88% 29.99 in 10.0 mi SSW 6.9 mph - N/A   Overcast
9:54 AM 32.0 °F 23.6 °F 27.0 °F 82% 30.00 in 10.0 mi SSW 10.4 mph - N/A   Mostly Cloudy
10:54 AM 32.0 °F 23.0 °F 25.0 °F 75% 30.00 in 10.0 mi SW 11.5 mph - N/A   Overcast
11:54 AM 32.0 °F 24.2 °F 25.0 °F 75% 30.00 in 10.0 mi SSW 9.2 mph - 0.00 in   Overcast
12:25 PM 32.0 °F 22.1 °F 24.8 °F 75% 29.99 in 10.0 mi SSW 13.8 mph - N/A   Overcast
12:54 PM 33.1 °F 24.4 °F 24.1 °F 70% 29.98 in 10.0 mi SW 11.5 mph - N/A   Overcast
1:12 PM 33.8 °F 25.8 °F 24.8 °F 70% 29.97 in 10.0 mi SW 10.4 mph - N/A   Overcast
1:21 PM 33.8 °F 26.4 °F 24.8 °F 70% 29.97 in 10.0 mi SSW 9.2 mph - N/A   Overcast
1:29 PM 33.8 °F 25.3 °F 24.8 °F 70% 29.97 in 10.0 mi SSW 11.5 mph - N/A   Overcast
1:42 PM 33.8 °F 26.4 °F 24.8 °F 70% 29.96 in 10.0 mi SSW 9.2 mph - N/A   Overcast
1:54 PM 33.1 °F 25.5 °F 25.0 °F 72% 29.97 in 10.0 mi SSW 9.2 mph - N/A   Overcast
2:10 PM 33.8 °F 25.8 °F 24.8 °F 70% 29.96 in 10.0 mi SSW 10.4 mph - N/A   Overcast
2:46 PM 33.8 °F 26.4 °F 26.6 °F 75% 29.95 in 10.0 mi South 9.2 mph - N/A   Overcast
2:54 PM 33.1 °F 26.9 °F 26.1 °F 75% 29.97 in 10.0 mi South 6.9 mph - N/A   Overcast
3:54 PM 34.0 °F 25.5 °F 26.1 °F 73% 29.98 in 10.0 mi South 11.5 mph - N/A   Overcast
4:23 PM 33.8 °F 26.4 °F 26.6 °F 75% 29.95 in 10.0 mi South 9.2 mph - N/A   Overcast
4:31 PM 33.8 °F 28.6 °F 26.6 °F 75% 29.95 in 10.0 mi South 5.8 mph - N/A   Overcast
4:54 PM 34.0 °F 28.0 °F 26.1 °F 73% 29.97 in 10.0 mi South 6.9 mph - N/A   Overcast
5:54 PM 34.0 °F 29.8 °F 27.0 °F 75% 29.95 in 10.0 mi South 4.6 mph - N/A   Overcast
6:23 PM 33.8 °F 29.6 °F 26.6 °F 75% 29.95 in 9.0 mi South 4.6 mph - N/A   Overcast
6:54 PM 33.1 °F 26.1 °F 27.0 °F 78% 29.96 in 10.0 mi South 8.1 mph - N/A   Overcast
7:54 PM 33.1 °F 28.7 °F 27.0 °F 78% 29.94 in 10.0 mi South 4.6 mph - N/A   Overcast
8:54 PM 33.1 °F 28.7 °F 27.0 °F 78% 29.93 in 10.0 mi South 4.6 mph - N/A   Overcast
9:22 PM 32.0 °F 24.8 °F 28.4 °F 87% 29.95 in 2.0 mi South 8.1 mph - 0.00 in Snow Light Snow
9:41 PM 30.2 °F 24.3 °F 28.4 °F 93% 29.96 in 1.0 mi South 5.8 mph - 0.02 in Snow Light Snow
9:50 PM 30.2 °F 22.6 °F 28.4 °F 93% 29.96 in 1.5 mi South 8.1 mph - 0.02 in Snow Light Snow
9:54 PM 30.9 °F 24.3 °F 28.9 °F 92% 29.94 in 1.5 mi South 6.9 mph - 0.02 in Snow Light Snow
10:03 PM 30.2 °F 23.4 °F 28.4 °F 93% 29.95 in 2.0 mi South 6.9 mph - 0.01 in Snow Light Snow
10:12 PM 30.2 °F 24.3 °F 28.4 °F 93% 29.95 in 4.0 mi South 5.8 mph - 0.01 in Snow Light Snow
10:24 PM 30.2 °F 24.3 °F 28.4 °F 93% 29.95 in 1.8 mi SSW 5.8 mph - 0.01 in Snow Light Snow
10:30 PM 30.2 °F 23.4 °F 28.4 °F 93% 29.95 in 1.0 mi South 6.9 mph - 0.02 in Snow Light Snow
10:41 PM 30.2 °F 23.4 °F 28.4 °F 93% 29.95 in 1.5 mi SSW 6.9 mph - 0.02 in Snow Light Snow
10:43 PM 30.2 °F 24.3 °F 28.4 °F 93% 29.95 in 2.0 mi SSW 5.8 mph - 0.02 in Snow Light Snow
10:54 PM 30.9 °F 26.2 °F 28.9 °F 92% 29.94 in 2.5 mi South 4.6 mph - 0.02 in Snow Light Snow
11:02 PM 30.2 °F 22.6 °F 28.4 °F 93% 29.95 in 6.0 mi South 8.1 mph - 0.00 in Snow Light Snow
11:35 PM 30.2 °F 24.3 °F 28.4 °F 93% 29.94 in 10.0 mi South 5.8 mph - 0.00 in   Overcast
11:54 PM 30.0 °F - 28.0 °F 92% 29.93 in 9.0 mi Calm Calm - 0.00 in   Overcast